Tracking 31027 objects as of 19-Jul-2025
HD Live streaming from Space Station
objects crossing your sky now

FENGYUN 1C DEB

Track FENGYUN 1C DEB now!
10-day predictions


NORAD ID: 30356
Int'l Code: 1999-025ABT
Perigee: 819.6 km
Apogee: 895.6 km
Inclination: 98.7 °
Period: 101.9 minutes
Semi major axis: 7228 km
RCS: 0.038 m2 (small)
Launch date: May 10, 1999
Source: People's Republic of China (PRC)
Launch site: Taiyaun Space Center, China (TSC)

Note: This is SATELLITE DEBRIS
Your satellite tracking list
STARLINK-1749
Track 1 satellite(s)




NASA's NSSDC Master Catalog

Two Line Element Set (TLE):
1 30356U 99025ABT 25199.51714311  .00000727  00000-0  41034-3 0  9992
2 30356  98.6730 199.2808 0052577 349.7567 138.6282 14.12617442949426
Source of the keplerian elements: AFSPC